BAW2AM EBAW-EGLL

Flight info

Callsign BAW2AM
Flight time N/A
Altitude 24000
Route NIK L610 KOPUL DCT TANET
Aircraft A320/M-SDE3FGHIRWY/LB1

Departure

Time 2026-04-23 08:41
Airport Antwerp International Airport (Deurne) (EBAW)

Arrival

Time N/A
Airport London Heathrow Airport (EGLL)
Time Latitude Longitude Altitude Speed Heading
2026-04-23 08:18 51.18895 4.45223 39 ft 0 kts 152°
2026-04-23 08:36 51.18878 4.45238 37 ft 4 kts 145°
2026-04-23 08:37 51.18875 4.45284 38 ft 6 kts 88°
2026-04-23 08:37 51.18884 4.45369 38 ft 10 kts 68°
2026-04-23 08:37 51.18916 4.45398 38 ft 2 kts 351°
2026-04-23 08:37 51.18944 4.45398 38 ft 5 kts 26°
2026-04-23 08:38 51.18987 4.45467 38 ft 12 kts 51°
2026-04-23 08:38 51.19040 4.45502 39 ft 4 kts 324°
2026-04-23 08:38 51.19076 4.45462 36 ft 8 kts 324°
2026-04-23 08:38 51.19081 4.45456 37 ft 0 kts 323°
2026-04-23 08:39 51.19083 4.45454 38 ft 1 kts 323°
2026-04-23 08:39 51.19098 4.45437 39 ft 5 kts 323°
2026-04-23 08:39 51.19144 4.45382 39 ft 11 kts 323°
2026-04-23 08:39 51.19212 4.45339 41 ft 7 kts 47°
2026-04-23 08:40 51.19211 4.45371 41 ft 0 kts 108°
2026-04-23 08:40 51.19188 4.45478 39 ft 44 kts 109°
2026-04-23 08:40 51.18982 4.46385 44 ft 125 kts 110°
2026-04-23 08:41 51.18676 4.47952 355 ft 155 kts 106°
2026-04-23 08:41 51.18272 4.49529 1230 ft 154 kts 111°
2026-04-23 08:41 51.17803 4.51035 2131 ft 152 kts 114°
2026-04-23 08:41 51.17180 4.52513 2725 ft 173 kts 131°
2026-04-23 08:42 51.16114 4.53677 3040 ft 200 kts 152°
2026-04-23 08:42 51.14721 4.54295 3477 ft 215 kts 168°
2026-04-23 08:42 51.13185 4.54467 3931 ft 231 kts 180°
2026-04-23 08:42 51.11534 4.53831 4235 ft 260 kts 204°
2026-04-23 08:43 51.10066 4.52008 4797 ft 277 kts 231°
2026-04-23 08:43 51.09173 4.49274 5581 ft 283 kts 256°
2026-04-23 08:43 51.09049 4.46162 6407 ft 284 kts 282°
2026-04-23 08:43 51.09727 4.43244 7215 ft 282 kts 306°
2026-04-23 08:44 51.10932 4.40781 8013 ft 283 kts 311°
2026-04-23 08:44 51.12104 4.38236 8816 ft 287 kts 307°
2026-04-23 08:44 51.13164 4.35514 9608 ft 292 kts 302°
2026-04-23 08:44 51.14084 4.32609 10386 ft 296 kts 297°
2026-04-23 08:45 51.14860 4.29538 11078 ft 301 kts 292°
2026-04-23 08:45 51.15490 4.26335 11766 ft 305 kts 287°
2026-04-23 08:45 51.15947 4.23006 12444 ft 311 kts 282°
2026-04-23 08:45 51.16229 4.19526 12654 ft 333 kts 277°
2026-04-23 08:46 51.16508 4.15752 12804 ft 352 kts 282°
2026-04-23 08:46 51.17038 4.11884 13265 ft 360 kts 286°
2026-04-23 08:46 51.17682 4.07997 13888 ft 364 kts 287°
2026-04-23 08:46 51.18342 4.04077 14509 ft 368 kts 286°
2026-04-23 08:47 51.18980 4.00111 15068 ft 371 kts 285°
2026-04-23 08:47 51.19580 3.96081 15639 ft 375 kts 284°
2026-04-23 08:47 51.20145 3.92015 16204 ft 377 kts 283°
2026-04-23 08:47 51.20698 3.87900 16765 ft 380 kts 283°
2026-04-23 08:48 51.21249 3.83757 17326 ft 383 kts 282°
2026-04-23 08:48 51.21800 3.79574 17888 ft 386 kts 282°
2026-04-23 08:48 51.22348 3.75360 18444 ft 390 kts 281°
2026-04-23 08:48 51.22901 3.71106 18999 ft 393 kts 281°
2026-04-23 08:49 51.23464 3.66827 19521 ft 396 kts 281°
2026-04-23 08:49 51.24026 3.62567 20039 ft 399 kts 281°
2026-04-23 08:49 51.24611 3.58160 20565 ft 402 kts 281°
2026-04-23 08:49 51.25198 3.53780 21068 ft 406 kts 281°
2026-04-23 08:50 51.25792 3.49354 21557 ft 409 kts 281°
2026-04-23 08:50 51.26381 3.44955 22023 ft 413 kts 281°
2026-04-23 08:50 51.26978 3.40445 22498 ft 416 kts 280°
2026-04-23 08:50 51.27572 3.35906 22960 ft 419 kts 280°
2026-04-23 08:51 51.28166 3.31322 23415 ft 423 kts 280°
2026-04-23 08:51 51.28757 3.26698 23869 ft 426 kts 279°
2026-04-23 08:51 51.29349 3.22044 24264 ft 429 kts 279°
2026-04-23 08:51 51.29941 3.17358 24419 ft 431 kts 279°
2026-04-23 08:52 51.30533 3.12685 24461 ft 427 kts 279°
2026-04-23 08:52 51.31120 3.08042 24460 ft 426 kts 279°
2026-04-23 08:52 51.31707 3.03398 24461 ft 426 kts 279°
2026-04-23 08:52 51.32293 2.98754 24472 ft 426 kts 279°
2026-04-23 08:53 51.32877 2.94112 24458 ft 426 kts 279°
2026-04-23 08:53 51.33461 2.89467 24456 ft 426 kts 279°
2026-04-23 08:53 51.34041 2.84823 24465 ft 426 kts 279°
2026-04-23 08:53 51.34617 2.80185 24461 ft 425 kts 279°
2026-04-23 08:54 51.35191 2.75550 24461 ft 425 kts 279°
2026-04-23 08:54 51.35764 2.70905 24462 ft 425 kts 279°
2026-04-23 08:54 51.36336 2.66266 24465 ft 425 kts 279°
2026-04-23 08:54 51.36906 2.61627 24465 ft 425 kts 279°
2026-04-23 08:55 51.37465 2.57030 24472 ft 425 kts 279°
2026-04-23 08:55 51.38029 2.52378 24470 ft 425 kts 279°
2026-04-23 08:55 51.38596 2.47736 24477 ft 425 kts 279°
2026-04-23 08:55 51.39170 2.43089 24477 ft 425 kts 279°
2026-04-23 08:56 51.39742 2.38439 24481 ft 425 kts 280°
2026-04-23 08:56 51.40302 2.33795 24482 ft 425 kts 281°
2026-04-23 08:56 51.40856 2.29139 24482 ft 425 kts 281°
2026-04-23 08:56 51.41410 2.24496 24490 ft 425 kts 281°
2026-04-23 08:57 51.41966 2.19834 24481 ft 425 kts 281°
2026-04-23 08:57 51.42519 2.15186 24486 ft 425 kts 281°
2026-04-23 08:57 51.43070 2.10531 24481 ft 425 kts 280°
2026-04-23 08:57 51.43620 2.05876 24487 ft 425 kts 280°
2026-04-23 08:58 51.44166 2.01225 24484 ft 425 kts 280°
2026-04-23 08:58 51.44712 1.96568 24485 ft 424 kts 281°
2026-04-23 08:58 51.45276 1.91922 24484 ft 425 kts 281°
2026-04-23 08:58 51.45855 1.87274 24495 ft 424 kts 282°
2026-04-23 08:59 51.46429 1.82636 24495 ft 424 kts 282°
2026-04-23 08:59 51.46985 1.77996 24496 ft 423 kts 282°
2026-04-23 08:59 51.47524 1.73360 24498 ft 423 kts 281°
2026-04-23 08:59 51.48053 1.68726 24489 ft 423 kts 281°
2026-04-23 09:00 51.48579 1.64085 24494 ft 423 kts 281°
2026-04-23 09:00 51.49102 1.59447 24483 ft 423 kts 281°
2026-04-23 09:00 51.49626 1.54807 24483 ft 422 kts 281°
2026-04-23 09:00 51.50139 1.50263 24269 ft 414 kts 281°
2026-04-23 09:01 51.50648 1.45763 23989 ft 407 kts 282°
2026-04-23 09:01 51.51146 1.41332 23500 ft 397 kts 282°
2026-04-23 09:01 51.51626 1.37057 23056 ft 382 kts 283°
2026-04-23 09:01 51.52084 1.32934 22623 ft 367 kts 282°
2026-04-23 09:02 51.52519 1.28962 22194 ft 355 kts 283°
2026-04-23 09:02 51.52948 1.25079 21773 ft 354 kts 283°
2026-04-23 09:02 51.53374 1.21167 21345 ft 356 kts 280°
2026-04-23 09:02 51.53467 1.17190 20919 ft 358 kts 268°
2026-04-23 09:03 51.53062 1.13248 20487 ft 359 kts 256°
2026-04-23 09:03 51.52183 1.09482 20040 ft 361 kts 244°
2026-04-23 09:03 51.50870 1.06036 19597 ft 362 kts 235°
2026-04-23 09:03 51.49438 1.02779 19157 ft 362 kts 235°
2026-04-23 09:04 51.47980 0.99477 18706 ft 363 kts 235°
2026-04-23 09:04 51.46519 0.96153 18444 ft 369 kts 235°
2026-04-23 09:04 51.45031 0.92778 18481 ft 373 kts 235°
2026-04-23 09:04 51.43533 0.89379 18487 ft 374 kts 235°
2026-04-23 09:05 51.42032 0.85969 18478 ft 374 kts 235°
2026-04-23 09:05 51.40530 0.82562 18479 ft 374 kts 235°
2026-04-23 09:05 51.39028 0.79159 18481 ft 374 kts 235°
2026-04-23 09:05 51.37525 0.75752 18477 ft 374 kts 235°
2026-04-23 09:06 51.36021 0.72360 18472 ft 375 kts 234°
2026-04-23 09:06 51.34501 0.68945 17736 ft 382 kts 234°
2026-04-23 09:06 51.32942 0.65443 16978 ft 388 kts 234°
2026-04-23 09:06 51.31572 0.61748 16460 ft 386 kts 248°
2026-04-23 09:07 51.30815 0.57660 15973 ft 381 kts 263°
2026-04-23 09:07 51.30712 0.53481 15471 ft 376 kts 276°
2026-04-23 09:07 51.30924 0.49360 14964 ft 374 kts 276°
2026-04-23 09:07 51.31132 0.45241 14649 ft 367 kts 276°
2026-04-23 09:08 51.31329 0.41238 14536 ft 354 kts 276°
2026-04-23 09:08 51.31498 0.37371 14263 ft 348 kts 272°
2026-04-23 09:08 51.31515 0.33509 13781 ft 348 kts 270°
2026-04-23 09:08 51.31501 0.29660 13373 ft 345 kts 270°
2026-04-23 09:09 51.31491 0.25831 12947 ft 343 kts 270°
2026-04-23 09:09 51.31484 0.22036 12583 ft 340 kts 270°
2026-04-23 09:09 51.31483 0.18271 12487 ft 339 kts 270°
2026-04-23 09:09 51.31480 0.14486 12495 ft 340 kts 270°
2026-04-23 09:10 51.31476 0.11972 12492 ft 342 kts 270°
2026-04-23 09:10 51.31460 0.03131 12475 ft 342 kts 270°
2026-04-23 09:10 51.31456 0.00932 12473 ft 342 kts 270°